Overview Statistics Trail Chart Weather Telemetry Raw packets
 

This is the latest recevied weather packets stored in our database for station/object KD7CIH. If no packets are shown the sender has not sent any weather packets the latest 10 day(s).

<< 72 73 74 75 76 77 78 >>
Time Temp. Humidity Pressure Rain* Wind** Luminosity Snow
1788181960 6.67° C 85% 1017.8 hPa 0 mm - - -
1788181534 6.67° C 84% 1017.8 hPa 0 mm - - -
1788181363 7.22° C 84% 1017.7 hPa 0 mm - - -
1788180933 7.22° C 86% 1017.7 hPa 0 mm - - -
1788180633 7.22° C 86% 1017.6 hPa 0 mm - - -
1788180333 7.22° C 86% 1017.6 hPa 0 mm - - -
1788180036 7.22° C 87% 1017.5 hPa 0 mm - - -
1788179733 7.22° C 85% 1017.6 hPa 0 mm - - -
1788179434 7.22° C 86% 1017.6 hPa 0 mm - - -
1788179133 7.22° C 85% 1017.6 hPa 0 mm - - -
1788178835 7.22° C 85% 1017.5 hPa 0 mm - - -
1788178533 7.22° C 86% 1017.5 hPa 0 mm - - -
1788178359 7.22° C 86% 1017.5 hPa 0 mm - - -
1788177933 7.22° C 85% 1017.2 hPa 0 mm - - -
1788177626 7.78° C 89% 1017.4 hPa 0 mm - - -
1788177321 7.78° C 85% 1017.2 hPa 0 mm - - -
1788177022 7.78° C 85% 1017.1 hPa 0 mm - - -
1788176848 7.78° C 85% 1017.1 hPa 0 mm - - -
1788176419 7.78° C 85% 1017.2 hPa 0 mm - - -
1788176119 7.78° C 85% 1017.1 hPa 0 mm - - -
1788175821 7.78° C 85% 1017.1 hPa 0 mm - - -
1788175534 7.78° C 85% 1016.9 hPa 0 mm - - -
1788175345 7.78° C 83% 1017 hPa 0 mm - - -
1788174919 8.33° C 83% 1016.9 hPa 0 mm - - -
1788174618 8.33° C 84% 1017 hPa 0 mm - - -

* Rain latest hour (hover to see other rain measurements)
** Current wind speed in m/s (hover to see current wind gust speed)